Location: Unspecified
(48.5670°N, 0.0000°E)
Time: 12:47:24
(UTC+00:00)

Altair - All Passes

Search period start: 22 July 2019 00:00
Search period end: 01 August 2019 00:00
Orbit: 1501 x 1683 km, 47.2° (Epoch: 21 July)

Date Brightness Start Highest point End Pass type
(mag) Time Alt. Az. Time Alt. Az. Time Alt. Az.
22 Jul - 10:05:32 10° S 10:12:31 25° SE 10:19:28 10° E daylight
22 Jul - 12:06:51 10° SW 12:15:47 60° SSE 12:24:48 10° ENE daylight
22 Jul - 14:10:57 10° W 14:20:09 84° S 14:29:32 10° E daylight
22 Jul - 16:15:33 10° W 16:24:40 67° SSW 16:34:02 10° ESE daylight
22 Jul - 18:20:27 10° W 18:28:17 32° SW 18:36:20 10° SSE daylight
23 Jul - 09:40:50 10° S 09:47:30 23° SE 09:54:08 10° E daylight
23 Jul - 11:41:47 10° SW 11:50:41 57° SSE 11:59:38 10° ENE daylight
23 Jul - 13:45:48 10° W 13:54:59 83° S 14:04:21 10° E daylight
23 Jul - 15:50:24 10° W 15:59:31 70° SSW 16:08:53 10° ESE daylight
23 Jul - 17:55:14 10° W 18:03:14 34° SW 18:11:27 10° SSE daylight
24 Jul - 09:16:12 10° S 09:22:30 21° SE 09:28:45 10° E daylight
24 Jul - 11:16:45 10° SW 11:25:36 55° SSE 11:34:27 10° ENE daylight
24 Jul - 13:20:39 10° W 13:29:50 83° S 13:39:09 10° E daylight
24 Jul - 15:25:15 10° W 15:34:23 72° SSW 15:43:46 10° ESE daylight
24 Jul - 17:30:01 10° WNW 17:38:10 36° SW 17:46:33 10° SSE daylight
25 Jul - 08:51:37 10° S 08:57:30 19° SE 09:03:21 10° E daylight
25 Jul - 10:51:43 10° SW 11:00:31 52° SSE 11:09:17 10° ENE daylight
25 Jul - 12:55:30 10° WSW 13:04:41 82° S 13:13:58 10° E daylight
25 Jul - 15:00:06 10° W 15:09:15 74° SSW 15:18:37 10° ESE daylight
25 Jul - 17:04:50 10° WNW 17:13:06 39° SW 17:21:37 10° SSE daylight
25 Jul - 19:13:51 10° WSW 19:15:42 11° WSW 19:17:34 10° SW daylight
26 Jul - 08:27:06 10° SSE 08:32:30 17° SE 08:37:52 10° E daylight
26 Jul - 10:26:42 10° SW 10:35:25 49° SSE 10:44:06 10° ENE daylight
26 Jul - 12:30:21 10° WSW 12:39:32 81° S 12:48:49 10° E daylight
26 Jul - 14:34:57 10° W 14:44:06 76° SSW 14:53:27 10° ESE daylight
26 Jul - 16:39:38 10° WNW 16:48:02 41° SW 16:56:39 10° SSE daylight
26 Jul - 18:47:27 10° WSW 18:50:43 12° SW 18:54:02 10° SW daylight
27 Jul - 08:02:41 10° SSE 08:07:31 15° SE 08:12:19 10° E daylight
27 Jul - 10:01:42 10° SW 10:10:21 46° SE 10:18:56 10° ENE daylight
27 Jul - 12:05:12 10° WSW 12:14:23 79° S 12:23:38 10° E daylight
27 Jul - 14:09:48 10° W 14:18:58 77° SSW 14:28:18 10° ESE daylight
27 Jul - 16:14:28 10° WNW 16:22:58 44° SW 16:31:41 10° SSE daylight
27 Jul - 18:21:34 10° W 18:25:44 14° SW 18:29:58 10° SSW daylight
28 Jul - 07:38:25 10° SSE 07:42:33 14° SE 07:46:38 10° E daylight
28 Jul - 09:36:44 10° SSW 09:45:16 44° SE 09:53:45 10° ENE daylight
28 Jul - 11:40:04 10° WSW 11:49:15 78° SSE 11:58:28 10° E daylight
28 Jul - 13:44:39 10° W 13:53:49 79° SSW 14:03:08 10° ESE daylight
28 Jul - 15:49:17 10° WNW 15:57:53 46° SW 16:06:41 10° SE daylight
28 Jul - 17:55:53 10° W 18:00:45 15° SW 18:05:41 10° SSW daylight
29 Jul - 07:14:23 10° SE 07:17:34 12° SE 07:20:44 10° ESE daylight
29 Jul - 09:11:46 10° SSW 09:20:13 41° SE 09:28:33 10° ENE daylight
29 Jul - 11:14:56 10° WSW 11:24:06 76° SSE 11:33:18 10° E daylight
29 Jul - 13:19:29 10° W 13:28:41 80° S 13:37:58 10° ESE daylight
29 Jul - 15:24:07 10° WNW 15:32:48 49° SSW 15:41:40 10° SE daylight
29 Jul - 17:30:20 10° W 17:35:45 17° SW 17:41:16 10° SSW daylight
30 Jul - 06:50:55 10° SE 06:52:36 11° ESE 06:54:16 10° ESE daylight
30 Jul - 08:46:50 10° SSW 08:55:09 39° SE 09:03:22 10° ENE daylight
30 Jul - 10:49:47 10° WSW 10:58:59 74° SSE 11:08:08 10° E daylight
30 Jul - 12:54:20 10° W 13:03:32 81° S 13:12:48 10° ESE daylight
30 Jul - 14:58:57 10° WNW 15:07:43 52° SSW 15:16:38 10° SE daylight
30 Jul - 17:04:52 10° W 17:10:45 19° SW 17:16:45 10° S daylight
31 Jul - 08:21:54 10° SSW 08:30:06 36° SE 08:38:10 10° ENE daylight
31 Jul - 10:24:39 10° WSW 10:33:51 72° SSE 10:42:58 10° E daylight
31 Jul - 12:29:10 10° W 12:38:23 82° S 12:47:38 10° E daylight
31 Jul - 14:33:47 10° WNW 14:42:38 54° SSW 14:51:36 10° SE daylight
31 Jul - 16:39:28 10° W 16:45:45 21° SW 16:52:09 10° S daylight
